Regional Weather Roundup
Issued by NWS Binghamton, NY

Home | Current Version | Previous Version | Text Only | Print | Product List | Glossary On
Versions: 1 2 3 4 5 6 7 8 9 10 11 12 13 14 15 16 17 18 19 20 21 22 23 24 25 26 27 28 29 30 31 32 33 34 35 36 37 38 39 40 41 42 43 44 45 46 47 48 49 50
000
ASUS41 KBGM 270610
RWRBGM

REGIONAL WEATHER ROUNDUP
NATIONAL WEATHER SERVICE BINGHAMTON NY
200 AM EDT WED JUL 27 2016

Note: "fair" indicates few or no clouds below 12,000 feet with no
significant weather and/or obstructions to visibility.

* = Station(s) that does not report precipitation, such as rain,
snow, etc, also no thunder or fog.

NYZ009-015>018-022>025-036-037-044>046-055>057-062-270700
...Central New York...

CITY           SKY/WX    TMP DP  RH WIND       PRES   REMARKS
Binghamton     CLEAR     66  60  81 CALM      30.01F
Cortland       FAIR      59  59 100 CALM      30.01F
Dansville      CLEAR     64  60  87 S5        30.01S
Elmira         CLEAR     64  59  83 W5        30.00S
Ithaca         CLEAR     61  60  97 E3        30.01F
Hamilton       CLEAR     57  57 100 CALM      30.00F
Hornell        CLEAR     61  59  94 CALM      30.06S
Monticello     CLEAR     59  57  94 W3        30.02S
Norwich        CLEAR     57  57 100 CALM      30.01F
Oneonta        CLEAR     61  61 100 CALM      30.03S
Penn Yan       CLEAR     66  62  87 SW3       30.00S
Rome           CLEAR     61  60  97 CALM      29.98S
Sidney         CLEAR     61  61 100 CALM      30.01S FOG
Syracuse       PTCLDY    66  61  84 CALM      29.96F
$$

PAZ038>040-043-044-047-048-072-270700
...Northeast Pennsylvania...

CITY           SKY/WX    TMP DP  RH WIND       PRES   REMARKS
Hazleton       PTCLDY    63  61  94 CALM      30.05S
Scranton       CLEAR     67  61  81 E7        29.99S
$$
&&
KEY
WCI = Wind Chill Index
VSB = Visibility
HX  = Heat Index
$$



USA.gov is the U.S. government's official web portal to all federal, state and local government web resources and services.